AFL1010 UNKL-UNNT

Flight info

Callsign AFL1010
Flight time N/A
Altitude 36000
Route APRUS2F APRUS B926 NATIR NATIR1K
Aircraft A20N/M-SDE2E3FGHIRWXY/LB1

Departure

Time 2026-04-28 14:50
Airport Krasnoyarsk International Airport (UNKL)

Arrival

Time N/A
Airport Novosibirsk Tolmachevo Airport (UNNT)
Time Latitude Longitude Altitude Speed Heading
2026-04-28 14:34 56.17971 92.48436 951 ft 0 kts 22°
2026-04-28 14:42 56.17969 92.48434 949 ft 4 kts 22°
2026-04-28 14:42 56.17941 92.48414 1005 ft 4 kts 22°
2026-04-28 14:42 56.17915 92.48390 950 ft 4 kts 47°
2026-04-28 14:43 56.17896 92.48352 949 ft 4 kts 93°
2026-04-28 14:43 56.17898 92.48334 949 ft 0 kts 112°
2026-04-28 14:45 56.17892 92.48363 949 ft 5 kts 110°
2026-04-28 14:46 56.17869 92.48434 949 ft 8 kts 135°
2026-04-28 14:46 56.17804 92.48437 951 ft 11 kts 201°
2026-04-28 14:46 56.17730 92.48452 949 ft 13 kts 133°
2026-04-28 14:46 56.17690 92.48611 951 ft 16 kts 111°
2026-04-28 14:47 56.17643 92.48810 948 ft 19 kts 113°
2026-04-28 14:47 56.17586 92.49049 949 ft 23 kts 113°
2026-04-28 14:47 56.17520 92.49321 951 ft 25 kts 113°
2026-04-28 14:47 56.17449 92.49618 951 ft 27 kts 113°
2026-04-28 14:48 56.17371 92.49936 949 ft 29 kts 113°
2026-04-28 14:48 56.17289 92.50272 951 ft 30 kts 117°
2026-04-28 14:48 56.17208 92.50426 951 ft 6 kts 189°
2026-04-28 14:48 56.17146 92.50383 951 ft 13 kts 203°
2026-04-28 14:49 56.17077 92.50264 949 ft 16 kts 265°
2026-04-28 14:49 56.17120 92.50040 950 ft 39 kts 292°
2026-04-28 14:49 56.17353 92.49055 951 ft 127 kts 292°
2026-04-28 14:49 56.17771 92.47275 1182 ft 175 kts 293°
2026-04-28 14:50 56.18271 92.45193 2152 ft 183 kts 294°
2026-04-28 14:50 56.18785 92.43052 3277 ft 194 kts 295°
2026-04-28 14:50 56.19346 92.40713 4204 ft 213 kts 294°
2026-04-28 14:50 56.19956 92.38151 4960 ft 234 kts 294°
2026-04-28 14:51 56.20606 92.35397 5780 ft 248 kts 294°
2026-04-28 14:51 56.21277 92.32536 6942 ft 249 kts 294°
2026-04-28 14:51 56.21842 92.29566 7966 ft 257 kts 282°
2026-04-28 14:51 56.21833 92.26308 8948 ft 268 kts 261°
2026-04-28 14:52 56.21213 92.23098 9987 ft 276 kts 251°
2026-04-28 14:52 56.20490 92.19846 10859 ft 288 kts 251°
2026-04-28 14:52 56.19711 92.16377 11300 ft 312 kts 251°
2026-04-28 14:52 56.18871 92.12644 11795 ft 331 kts 251°
2026-04-28 14:53 56.18000 92.08787 12692 ft 336 kts 251°
2026-04-28 14:53 56.17113 92.04870 13603 ft 341 kts 251°
2026-04-28 14:53 56.16211 92.00884 14474 ft 347 kts 251°
2026-04-28 14:53 56.15298 91.96846 15285 ft 352 kts 251°
2026-04-28 14:54 56.14370 91.92747 16082 ft 357 kts 251°
2026-04-28 14:54 56.13429 91.88595 16870 ft 362 kts 252°
2026-04-28 14:54 56.12471 91.84378 17652 ft 367 kts 252°
2026-04-28 14:54 56.11498 91.80103 18414 ft 373 kts 252°
2026-04-28 14:55 56.10511 91.75777 19107 ft 378 kts 252°
2026-04-28 14:55 56.09512 91.71406 19799 ft 381 kts 252°
2026-04-28 14:55 56.08497 91.66978 20487 ft 386 kts 252°
2026-04-28 14:55 56.07471 91.62510 21141 ft 391 kts 252°
2026-04-28 14:56 56.06430 91.57986 21796 ft 395 kts 252°
2026-04-28 14:56 56.05376 91.53414 22437 ft 400 kts 252°
2026-04-28 14:56 56.04309 91.48793 23080 ft 404 kts 252°
2026-04-28 14:56 56.03225 91.44111 23713 ft 409 kts 252°
2026-04-28 14:57 56.02128 91.39385 24254 ft 413 kts 252°
2026-04-28 14:57 56.01397 91.36241 24638 ft 415 kts 252°
2026-04-28 14:57 55.99920 91.29901 25356 ft 419 kts 252°
2026-04-28 14:57 55.98811 91.25066 25888 ft 421 kts 255°
2026-04-28 14:58 55.97981 91.20061 26378 ft 419 kts 262°
2026-04-28 14:58 55.97391 91.14944 26864 ft 422 kts 263°
2026-04-28 14:58 55.96796 91.09780 27352 ft 426 kts 263°
2026-04-28 14:58 55.96192 91.04583 27811 ft 429 kts 263°
2026-04-28 14:59 55.95577 90.99347 28263 ft 433 kts 262°
2026-04-28 14:59 55.94952 90.94073 28705 ft 436 kts 262°
2026-04-28 14:59 55.94320 90.88758 29150 ft 439 kts 262°
2026-04-28 14:59 55.93680 90.83408 29560 ft 443 kts 262°
2026-04-28 15:00 55.93032 90.78012 29971 ft 446 kts 262°
2026-04-28 15:00 55.92380 90.72594 30363 ft 449 kts 262°
2026-04-28 15:00 55.91720 90.67140 30730 ft 452 kts 262°
2026-04-28 15:00 55.91053 90.61655 31093 ft 454 kts 261°
2026-04-28 15:01 55.90380 90.56139 31453 ft 456 kts 261°
2026-04-28 15:01 55.89703 90.50616 31864 ft 457 kts 261°
2026-04-28 15:01 55.89031 90.45160 32332 ft 456 kts 261°
2026-04-28 15:01 55.88352 90.39663 32795 ft 454 kts 261°
2026-04-28 15:02 55.87671 90.34172 33263 ft 453 kts 261°
2026-04-28 15:02 55.86990 90.28700 33712 ft 452 kts 261°
2026-04-28 15:02 55.86308 90.23240 34159 ft 451 kts 261°
2026-04-28 15:02 55.85625 90.17798 34571 ft 450 kts 261°
2026-04-28 15:03 55.84941 90.12361 34890 ft 450 kts 260°
2026-04-28 15:03 55.84253 90.06914 35199 ft 450 kts 260°
2026-04-28 15:03 55.83564 90.01487 35504 ft 450 kts 260°
2026-04-28 15:03 55.82870 89.96042 35808 ft 450 kts 260°
2026-04-28 15:04 55.82174 89.90605 36039 ft 452 kts 261°
2026-04-28 15:04 55.81474 89.85147 36312 ft 452 kts 261°
2026-04-28 15:04 55.80771 89.79689 36606 ft 452 kts 260°
2026-04-28 15:04 55.80067 89.74249 36889 ft 452 kts 260°
2026-04-28 15:05 55.79359 89.68794 37165 ft 452 kts 260°
2026-04-28 15:05 55.78648 89.63346 37354 ft 454 kts 261°
2026-04-28 15:05 55.77932 89.57867 37415 ft 454 kts 260°
2026-04-28 15:06 55.76503 89.47005 37417 ft 450 kts 260°
2026-04-28 15:06 55.75071 89.36201 37420 ft 452 kts 260°
2026-04-28 15:07 55.73621 89.25345 37425 ft 452 kts 260°
2026-04-28 15:07 55.72164 89.14507 37424 ft 452 kts 260°
2026-04-28 15:08 55.70696 89.03668 37425 ft 452 kts 260°
2026-04-28 15:08 55.69230 88.92898 37428 ft 452 kts 260°
2026-04-28 15:09 55.67750 88.82068 37427 ft 452 kts 260°
2026-04-28 15:09 55.66262 88.71245 37432 ft 452 kts 260°
2026-04-28 15:10 55.64763 88.60425 37430 ft 452 kts 260°
2026-04-28 15:10 55.63253 88.49600 37439 ft 453 kts 260°
2026-04-28 15:11 55.61734 88.38788 37429 ft 453 kts 260°
2026-04-28 15:11 55.60207 88.27994 37542 ft 447 kts 260°